This is the latest recevied weather packets stored in our database for station/object K5DLF-13. If no packets are shown the sender has not sent any weather packets the latest 10 day(s).
| Time | Temp. | Humidity | Pressure | Rain* | Wind** | Luminosity | Snow |
|---|---|---|---|---|---|---|---|
| 1777930499 | 25.56° C | 71% | 1010.2 hPa | 0 mm | - | 151 W/m² | - |
| 1777930199 | 25.56° C | 71% | 1010.1 hPa | 0 mm | - | 139 W/m² | - |
| 1777929899 | 26.11° C | 71% | 1010 hPa | 0 mm | - | 223 W/m² | - |
| 1777929599 | 26.11° C | 71% | 1010.1 hPa | 0 mm | - | 287 W/m² | - |
| 1777929299 | 26.11° C | 70% | 1010.1 hPa | 0 mm | - | 267 W/m² | - |
| 1777928999 | 26.11° C | 70% | 1010.3 hPa | 0 mm | - | 281 W/m² | - |
| 1777928699 | 26.11° C | 71% | 1010.4 hPa | 0 mm | - | 269 W/m² | - |
| 1777928399 | 26.11° C | 69% | 1010.4 hPa | 0 mm | - | 251 W/m² | - |
| 1777928099 | 26.67° C | 70% | 1010.3 hPa | 0 mm | - | 253 W/m² | - |
| 1777927799 | 26.11° C | 72% | 1010.3 hPa | 0 mm | - | 979 W/m² | - |
| 1777927499 | 26.11° C | 69% | 1010.5 hPa | 0 mm | - | 341 W/m² | - |
| 1777927199 | 26.11° C | 69% | 1010.5 hPa | 0 mm | - | 279 W/m² | - |
| 1777926899 | 26.67° C | 68% | 1010.6 hPa | 0 mm | - | 276 W/m² | - |
| 1777926599 | 26.67° C | 69% | 1010.6 hPa | 0 mm | - | 267 W/m² | - |
| 1777926299 | 26.67° C | 69% | 1010.5 hPa | 0 mm | - | 350 W/m² | - |
| 1777925999 | 26.67° C | 68% | 1010.7 hPa | 0 mm | - | 348 W/m² | - |
| 1777925699 | 26.67° C | 69% | 1010.8 hPa | 0 mm | - | 274 W/m² | - |
| 1777925399 | 26.67° C | 66% | 1010.8 hPa | 0 mm | - | 258 W/m² | - |
| 1777925100 | 27.22° C | 67% | 1010.8 hPa | 0 mm | - | 360 W/m² | - |
| 1777924800 | 27.22° C | 67% | 1010.8 hPa | 0 mm | - | 360 W/m² | - |
| 1777924500 | 27.22° C | 64% | 1010.9 hPa | 0 mm | - | 290 W/m² | - |
| 1777924200 | 27.22° C | 68% | 1010.8 hPa | 0 mm | - | 304 W/m² | - |
| 1777923899 | 27.22° C | 65% | 1011.1 hPa | 0 mm | - | 304 W/m² | - |
| 1777923600 | 27.78° C | 65% | 1011.1 hPa | 0 mm | - | 475 W/m² | - |
| 1777923300 | 27.78° C | 65% | 1011.4 hPa | 0 mm | - | 269 W/m² | - |
* Rain latest hour (hover to see other rain measurements)
** Current wind speed in m/s (hover to see current wind gust speed)